Location: Charleston
(38.3500°N, 81.6330°W)
Time: 17:45:46
(UTC-05:00)

Daily predictions for brighter satellites

Satellite Brightness Start Highest point End
(mag) Time Altitude Azimuth Time Altitude Azimuth Time Altitude Azimuth
Cosmos 2181 Rocket 4.3 18:30:55 10° N 18:36:59 49° E 18:43:06 10° SSE
Genesis I 3.8 18:36:24 10° NNW 18:40:05 37° NE 18:43:43 10° ESE
Okean 1 Rocket 3.6 18:36:39 10° SSE 18:40:48 38° E 18:44:57 10° NNE
Cosmos 1238 Rocket 2.7 18:38:20 10° NNE 18:41:06 35° E 18:43:57 10° SSE
Cosmos 1709 Rocket 4.0 18:36:40 10° S 18:42:51 74° E 18:49:00 10° N
NOSS 8 (H) 4.4 18:41:01 10° SSW 18:44:23 67° ESE 18:47:52 10° NE
METEOR-M 4.3 18:39:54 10° SSE 18:45:04 53° ENE 18:50:15 10° N
ASTRO F (AKARI) 4.3 18:43:46 10° NNE 18:47:13 70° E 18:50:30 10° S
Cosmos 1484 Rocket 4.0 18:43:58 10° S 18:47:47 48° W 18:51:34 10° NNW
Cosmos 2151 Rocket 4.4 18:43:56 10° SSW 18:48:22 59° W 18:52:51 10° N
Cosmos 1025 Rocket 4.2 18:45:15 10° NNE 18:48:46 23° ENE 18:52:17 10° SE
OTV 4 2.2 18:46:38 10° SSW 18:48:54 20° SSE 18:51:10 10° ESE
Cosmos 2322 3.7 18:52:08 10° NNW 18:57:53 84° ENE 19:03:35 10° SSE
DELTA 2 R/B (1) 4.4 18:53:02 10° W 18:58:27 50° SSW 19:03:50 10° SE
Hubble Space Telescope 2.8 18:57:43 10° SSW 19:00:20 16° SSE 19:02:57 10° SE
BREEZE-M DEB (TANK) 2.6 18:58:07 10° SW 19:03:14 62° SE 19:05:20 14° ENE
Cosmos 1850 Rocket 4.0 18:59:50 10° SSW 19:05:07 79° ESE 19:10:29 10° NNE
CZ-3C R/B 3.8 19:01:21 10° SW 19:07:31 15° SSW 19:10:39 10° SSE
Cosmos 2208 Rocket 4.2 19:02:12 10° N 19:07:35 57° ENE 19:12:51 10° SSE
Meteor 1-19 Rocket 4.3 19:02:37 10° N 19:08:22 84° E 19:14:10 10° S
SJ-6B 2.8 19:04:35 10° SSE 19:08:32 64° ENE 19:12:23 10° N
Cosmos 405 Rocket 4.1 19:08:30 10° NNE 19:11:33 20° ENE 19:13:12 16° ESE
ALOS 2.4 19:07:41 10° SSE 19:12:10 49° ENE 19:16:41 10° N
Cosmos 2237 Rocket 3.5 19:08:04 10° N 19:12:12 20° NE 19:14:36 16° E
Cosmos 2297 Rocket 3.6 19:09:52 10° SE 19:13:17 17° E 19:14:23 16° E
HJ-1C 3.8 19:10:13 10° SE 19:13:23 41° ENE 19:16:36 10° N
Cosmos 2333 4.4 19:09:14 10° NNW 19:14:50 52° ENE 19:20:26 10° SE
H-2A R/B 3.5 19:12:04 10° SE 19:15:19 29° ENE 19:18:36 10° N
CZ-2D R/B 4.4 19:14:14 16° ESE 19:16:05 23° ENE 19:19:07 10° NNE
Cosmos 2237 4.2 19:10:47 10° NNW 19:16:33 79° ENE 19:22:15 10° SSE
COSMOS 2428 2.7 19:11:03 10° NNW 19:16:42 62° ENE 19:22:19 10° SE
Okean 1-7 Rocket 3.5 19:15:10 10° N 19:19:41 69° E 19:24:07 10° SSE
Gbstr 26 Del rocket 4.3 19:18:47 10° W 19:22:11 29° NNW 19:25:30 10° NNE
Meteor 2-4 Rocket 3.5 19:16:53 10° N 19:22:24 79° E 19:27:45 10° SSE
Cosmos 2285 Rocket 4.2 19:17:20 10° N 19:23:37 52° ENE 19:29:49 10° SE
Cosmos 2219 Rocket 2.6 19:19:33 10° N 19:24:49 40° ENE 19:28:57 16° SE
Cosmos 2360 Rocket 3.2 19:19:30 10° NNW 19:24:57 50° WSW 19:30:23 10° S
Meteor 1-23 Rocket 4.2 19:22:22 10° N 19:28:10 72° E 19:33:51 10° SSE
Okean 2 3.7 19:25:17 10° N 19:29:16 42° E 19:33:14 10° SSE
Cosmos 2219 3.5 19:25:41 10° SSW 19:31:25 74° WNW 19:37:10 10° NNE
FREGAT/IRIS 3.7 19:29:20 10° S 19:32:19 47° W 19:35:19 10° NNW
Atlas Centaur 2 4.0 19:28:01 10° SSW 19:33:04 19° SSE 19:35:47 15° SE
Cosmos 2227 Rocket 2.8 19:28:25 10° SSE 19:33:26 34° ESE 19:38:28 10° NE
Helios 1A 3.7 19:33:28 28° E 19:34:15 30° ENE 19:37:55 10° N
Abrixas rocket 3.5 19:32:12 10° W 19:35:21 36° NNW 19:37:11 20° NNE
Helios 1B rocket 3.1 19:32:27 10° NNE 19:36:13 33° E 19:39:57 10° SSE
Cosmos 1536 3.8 19:35:02 10° SSW 19:38:54 49° W 19:42:47 10° N
SAR-Lupe-4 3.8 19:44:54 45° ENE 19:44:55 45° ENE 19:48:22 10° N
Cosmos 1455 Rocket 3.4 19:41:40 10° SSE 19:45:44 39° E 19:49:48 10° NNE
SL-16 R/B 3.8 19:44:16 10° NNE 19:47:22 17° NE 19:47:22 17° NE
Cosmos 1763 Rocket 4.2 19:53:20 10° N 19:57:29 32° NE 19:57:29 32° NE
Resurs 01 Rocket 1.9 19:54:29 10° S 19:58:52 68° WSW 20:03:16 10° NNW
Cosmos 1610 Rocket 4.4 19:58:51 10° S 20:05:05 86° W 20:11:17 10° N
ATLAS 2A CENTAUR R/B 4.3 20:05:40 10° SSW 20:08:28 16° S 20:10:06 15° SSE
Resurs 1-3 4.0 20:04:57 10° S 20:09:17 62° W 20:13:39 10° NNW
Cosmos 2333 Rocket 2.1 20:05:06 10° NNW 20:10:52 78° ENE 20:12:59 41° SE
Cosmos 1980 3.6 20:06:16 10° NNW 20:11:53 63° ENE 20:12:50 54° ESE
GEOS 3 Rocket 3.8 20:08:20 15° NNE 20:12:43 74° NW 20:17:58 10° SW
GPS 2-04 Rocket1 3.1 20:10:08 10° W 20:14:12 60° SSW 20:14:12 60° SSW
Cosmos 1892 Rocket 4.1 20:19:52 10° NNW 20:24:09 56° W 20:26:07 29° SSW
OTV 4 3.2 20:21:43 10° WSW 20:22:38 18° WSW 20:22:38 18° WSW
Cosmos 468 Rocket 4.2 20:21:43 10° NNW 20:26:56 68° WSW 20:28:51 39° S
USA 229 DEB 4.3 20:23:28 10° NW 20:30:26 56° WSW 20:35:24 20° S
USA 229 4.3 20:23:34 10° NW 20:30:33 57° WSW 20:35:26 21° S
Cosmos 1295 Rocket 4.4 20:26:55 10° S 20:33:36 66° ENE 20:39:19 10° NNE
Cosmos 2082 3.7 20:29:52 10° SSW 20:35:36 80° WNW 20:37:59 37° NNE
Hubble Space Telescope 3.3 20:37:51 10° SW 20:38:56 15° SW 20:38:56 15° SW
NOSS 3-1 (A) 4.0 20:35:43 10° NNW 20:43:22 66° NE 20:44:06 63° E
Envisat 3.7 20:47:01 45° NNW 20:47:01 45° NNW 20:50:33 10° NNW
Cosmos 1814 Rocket 4.4 20:42:57 10° NNW 20:47:53 57° W 20:47:53 57° W
ATLAS 2AS CENTAUR R/B 4.2 20:42:03 10° NNW 20:48:06 26° NNE 20:48:06 26° NNE
Cosmos 2237 Rocket 2.6 20:51:04 10° NNW 20:56:29 59° W 20:56:29 59° W
Cosmos 2297 Rocket 2.6 20:51:09 10° SW 20:56:25 60° W 20:56:25 60° W
NOSS 3-1 (C) 4.0 20:53:29 10° NW 21:01:14 81° WSW 21:02:16 70° S
Cosmos 2219 Rocket 4.0 21:03:56 10° NW 21:08:30 26° WSW 21:10:47 20° SW
H-2A R/B 4.2 21:03:20 10° SW 21:42:32 14° E 21:55:08 10° E
H-2A R/B 4.2 21:03:20 10° SW 21:42:31 14° E 21:55:08 10° E
H-2A R/B 4.2 21:03:21 10° SW 21:42:31 14° E 21:55:08 10° E
H-2A R/B 4.2 21:03:20 10° SW 21:42:30 14° E 21:55:08 10° E
Cosmos 2227 Rocket 3.8 21:12:26 10° WSW 21:17:27 32° WNW 21:20:36 19° N
Atlas Centaur 2 4.3 21:15:53 10° SW 21:18:26 20° SW 21:18:26 20° SW
SL-16 R/B 4.0 21:26:56 10° NNW 21:29:18 26° NNW 21:29:18 26° NNW
